Location: Muenchen
(48.1800°N, 11.5800°E)
Time: 19:10:42
(UTC+02:00)

Sich 1 Rocket - Visible Passes

Search period start: 03 September 2015 00:00
Search period end: 13 September 2015 00:00
Orbit: 618 x 653 km, 82.5° (Epoch: 02 September)

Date Brightness Start Highest point End Pass type
(mag) Time Alt. Az. Time Alt. Az. Time Alt. Az.
03 Sep 5.6 01:56:21 10° N 01:58:46 27° NNE 01:58:46 27° NNE visible
03 Sep 5.8 03:35:01 10° NW 03:36:14 16° NW 03:36:14 16° NW visible
04 Sep 5.5 02:18:38 10° N 02:20:46 28° N 02:20:46 28° N visible
05 Sep 6.2 01:03:52 10° NNE 01:05:20 15° NE 01:05:20 15° NE visible
05 Sep 5.7 02:41:10 10° NNW 02:42:48 21° NNW 02:42:48 21° NNW visible
06 Sep 6.0 01:25:39 10° N 01:27:23 20° NNE 01:27:23 20° NNE visible
06 Sep 6.0 03:04:02 10° NNW 03:04:51 14° NW 03:04:51 14° NW visible
07 Sep 6.0 01:47:51 10° N 01:49:27 21° N 01:49:27 21° N visible
08 Sep 6.4 00:33:22 10° NNE 00:34:03 12° NE 00:34:03 12° NE visible
08 Sep 6.1 02:10:19 10° NNW 02:11:31 18° NNW 02:11:31 18° NNW visible
09 Sep 6.3 00:54:58 10° N 00:56:08 16° NNE 00:56:08 16° NNE visible
09 Sep 6.3 02:33:04 10° NNW 02:33:36 13° NNW 02:33:36 13° NNW visible
10 Sep 6.3 01:17:05 10° N 01:18:14 17° N 01:18:14 17° N visible
11 Sep 6.3 01:39:29 10° NNW 01:40:21 16° NNW 01:40:21 16° NNW visible
12 Sep 6.4 00:24:19 10° NNE 00:25:00 13° NNE 00:25:00 13° NNE visible
12 Sep 6.5 02:02:09 10° NNW 02:02:28 12° NNW 02:02:28 12° NNW visible
